Погода в Сайде

Ливан     33°33′07″N   35°23′21″E
темп.,
°C
ветер,
м/с
пор.,
м/с
влажн.,
%
обл.,
%
осадки,
мм/ч
давл.,
гПа
погр.,
м
10 августа, ср
ср1000:00+21сз118511 0.0 100984
03:00+21всв118812 0.1 100825
06:00+20вюв01895 0.1 100816
09:00+24зюз33657 0.2 1008975
12:00+27з54510 0.0 10081216
15:00+27з54510 0.0 10081202
18:00+25з43610 0.0 1007880
21:00+23з227810 0.0 1008366
11 августа, чт
чт1100:00+22ююз128214 0.1 1008287
03:00+21юз018314 0.2 100745
06:00+20в11901 0.0 100819
09:00+25зюз32681 0.1 1008684
12:00+28з54550 0.0 10081097
15:00+28зсз54500 0.0 10081035
18:00+26сз44610 0.0 1008638
21:00+22ссз23860 0.0 1009208
12 августа, пт
пт1200:00+21с22900 0.0 100950
03:00+21с22880 0.0 100833
06:00+20ссв22790 0.0 100923
09:00+25сз33550 0.0 1009576
12:00+28зсз53450 0.0 1009819
15:00+28сз54440 0.0 1008716
18:00+26сз43530 0.0 1008504
21:00+22ссз22750 0.0 100969
13 августа, сб
сб1300:00+21с11780 0.0 100924
03:00+19ссв11830 0.0 100923
06:00+19св11790 0.0 100914
09:00+24з22540 0.0 1009534
12:00+28з53430 0.0 1008850
15:00+28з53480 0.0 1008815
18:00+25зсз33580 0.0 1008608
21:00+21з11780 0.0 100837
14 августа, вс
вс1400:00+20ю01831 0.0 100827
03:00+19вюв118820 0.0 100834
06:00+20юв118729 0.0 100874
09:00+24зюз33680 0.0 1008660
12:00+28з53520 0.0 1008991
15:00+28з54510 0.0 1007906
18:00+26зсз43650 0.0 1007662
21:00+22зсз11906 0.0 100898